EHI
13 12 11 9 8 9 10 10 6 4 4 7 10 12 12 10 6 5 6 4 3 3 3 1 0 0 0 0 0 0 0 0 0 0 0 0 0 0
15 14 11 8 7 8 9 9 7 4 4 6 9 11 11 8 6 7 7 6 4 3 2 1 0 0 0 0 0 0 0 0 0 0 0 0 0 0
14 12 10 6 6 7 7 7 6 5 4 5 7 10 10 8 7 8 9 7 5 3 1 1 0 0 0 0 0 0 0 0 0 0 0 0 0 0
10 10 8 6 5 6 7 6 5 4 4 5 6 8 10 8 7 8 8 7 4 1 0 0 0 0 0 0 0 0 0 0 0 0 0 0 0 0
11 10 9 7 6 7 7 5 5 5 5 5 6 7 7 6 6 6 5 5 3 1 0 0 0 0 0 0 0 0 0 0 0 0 0 0 0 0
12 12 10 8 7 7 7 6 6 6 6 5 5 5 4 3 4 3 2 3 3 1 1 0 0 0 0 0 0 0 0 0 0 0 0 0 0 0
12 12 9 6 5 5 5 6 7 7 6 5 4 3 2 2 2 1 1 1 2 3 2 1 0 0 0 0 0 0 0 0 0 0 0 0 0 0
10 9 7 4 3 2 2 2 3 4 4 4 3 2 2 1 1 1 1 1 3 4 3 2 1 1 1 0 0 0 0 0 0 0 0 0 0 0
9 8 6 4 3 2 0 0 0 1 1 1 1 1 2 2 2 2 2 2 3 4 3 2 3 3 2 1 0 0 0 0 0 0 0 0 0 0
7 7 6 5 4 2 1 1 1 1 0 0 0 0 1 2 2 3 3 2 2 2 3 3 4 4 3 2 1 0 0 0 0 0 0 0 0 0
6 5 5 4 3 2 1 2 3 2 1 0 0 0 0 1 1 2 2 2 1 1 2 3 3 3 3 3 2 1 0 0 0 0 0 0 0 0
5 5 4 4 2 1 1 3 3 2 1 0 0 0 0 0 0 1 1 1 1 2 2 3 3 2 3 3 2 1 0 0 0 0 0 0 0 0
3 3 3 2 1 0 1 2 2 1 0 0 0 1 2 2 1 1 1 2 1 1 2 2 2 1 1 3 3 1 1 0 0 0 0 0 0 0
2 2 2 1 0 0 0 1 1 0 0 0 0 2 3 4 4 4 4 4 3 2 2 2 1 0 1 2 3 2 1 1 1 1 0 0 0 0
2 2 2 1 0 0 0 0 0 0 0 0 1 1 3 6 6 6 6 6 4 2 2 2 2 1 1 2 2 1 1 1 2 1 0 0 0 0
4 3 2 1 0 0 0 0 0 0 0 0 1 1 3 5 6 6 6 6 4 3 2 3 3 2 1 1 1 0 0 0 1 1 0 0 0 0
4 5 5 3 2 2 1 1 1 1 1 1 1 2 2 3 5 6 6 5 4 3 3 4 3 2 1 0 0 0 0 0 0 1 0 0 0 0
4 5 6 6 5 5 4 3 3 2 2 2 1 2 4 4 5 5 4 4 3 3 3 3 2 1 1 0 0 0 0 0 0 0 0 0 0 0
3 4 6 6 6 6 6 6 5 4 3 3 3 3 5 5 5 4 3 3 3 3 3 2 1 0 0 0 0 0 0 0 0 0 0 0 0 0
2 3 6 7 7 7 8 8 7 4 3 3 3 4 4 4 4 3 3 3 3 3 3 1 0 0 0 0 0 0 0 0 0 0 0 0 0 0
1 2 5 6 7 8 8 8 6 5 4 3 3 4 4 4 3 3 3 3 2 2 2 1 0 0 0 0 0 0 0 0 0 0 0 0 0 0
0 1 3 5 7 8 8 6 4 5 4 4 3 3 3 3 3 3 3 3 2 1 1 0 0 0 0 0 0 0 0 0 0 0 0 0 0 0
0 1 3 5 7 8 7 4 4 4 4 4 3 3 2 3 3 3 3 3 2 1 0 0 0 0 0 0 0 0 0 0 0 0 0 0 0 0
Wind_Speed
2 2 2 2 2 2 2 0 1 2 2 1 0 1 1 2 5 4 4 5 7 7 6 5 5 5 4 3 2 2 2 2 2 3 4 4 5 7
2 1 2 2 2 2 2 1 1 1 1 1 1 1 0 1 3 3 4 7 8 8 8 7 6 6 5 4 3 3 2 2 2 3 4 5 5 6
2 1 2 2 2 3 2 2 1 1 1 2 0 0 0 0 0 2 3 4 4 8 8 8 8 7 7 6 5 4 4 3 3 3 3 4 5 6
1 1 1 1 2 2 2 2 2 1 1 2 1 1 1 1 1 2 2 3 3 7 9 9 9 8 8 7 6 6 5 4 4 3 3 3 4 5
1 0 1 1 2 2 2 2 2 2 1 1 2 1 1 1 1 2 3 1 3 4 8 9 9 9 9 9 8 7 6 5 5 4 4 4 4 4
1 1 0 0 1 2 2 2 2 2 2 2 2 1 1 1 0 1 2 1 3 2 2 4 7 9 9 9 8 8 7 7 6 5 5 5 4 4
1 1 1 1 1 1 2 2 2 2 2 2 2 1 1 1 1 2 2 2 2 1 1 2 3 4 5 7 8 8 8 8 7 7 6 6 6 5
1 1 1 1 1 1 1 1 1 1 2 2 2 1 1 1 1 2 2 2 2 1 1 2 2 3 4 5 8 9 10 9 9 8 8 8 7 7
1 1 2 2 2 1 1 2 2 3 3 2 2 2 2 2 2 3 2 2 2 2 2 3 2 2 3 4 9 10 10 10 10 10 9 9 8 8
1 1 1 1 2 2 1 1 2 2 3 3 2 3 2 2 2 3 4 4 3 2 1 2 2 2 3 2 8 10 11 10 10 10 10 9 9 8
1 0 1 2 0 1 2 2 3 2 3 4 4 4 5 4 3 2 3 2 3 3 1 2 2 2 2 1 3 9 10 10 10 10 10 9 9 8
1 1 1 1 2 1 2 3 3 3 3 3 3 5 5 5 5 3 2 2 2 2 1 1 2 1 2 2 1 2 4 7 10 10 9 8 7 5
1 0 1 2 2 2 3 3 4 4 4 4 4 3 3 3 3 3 3 2 2 3 2 1 2 2 2 2 2 1 2 2 4 5 7 8 9 7
2 1 0 2 3 4 4 4 4 4 3 3 3 2 2 2 2 3 3 4 4 4 3 2 3 3 3 3 3 2 2 2 2 3 3 5 8 10
2 3 3 4 4 4 5 5 3 2 3 3 2 2 2 2 2 2 2 3 3 4 3 3 3 3 3 3 3 2 2 2 1 2 2 3 3 4
2 3 4 5 4 4 3 3 3 3 3 3 2 2 2 2 2 2 2 2 2 3 3 2 2 2 3 4 3 3 2 2 1 1 1 2 2 3
2 2 2 1 1 2 2 2 2 2 2 2 2 2 2 2 2 2 2 2 2 3 2 2 1 1 2 3 3 3 2 2 1 1 1 2 2 3
1 2 2 2 2 2 1 1 1 1 2 2 2 2 2 2 2 2 2 2 3 3 2 2 2 2 2 2 2 2 2 2 1 1 1 2 2 2
1 2 2 2 2 2 2 2 1 1 1 2 2 2 2 2 2 2 2 2 2 2 2 2 2 2 3 4 2 1 2 2 2 2 2 2 2 2
2 3 3 2 2 2 2 2 2 1 1 2 2 2 2 2 2 2 2 2 3 3 3 2 2 2 3 3 2 3 3 2 2 2 2 1 2 2
3 2 3 2 2 2 2 2 2 2 2 2 2 2 2 2 2 2 2 3 3 3 3 3 3 4 3 2 2 2 2 3 3 3 2 2 2 2
3 3 3 3 2 2 2 2 3 3 3 3 3 2 2 2 2 3 3 2 2 3 3 3 3 3 2 3 3 3 3 2 3 3 3 3 3 3
2 2 2 2 2 2 2 3 3 3 3 3 3 3 3 3 3 3 3 3 3 3 3 3 3 3 3 3 3 3 3 3 2 2 3 4 6 7
Wind_Direction
287 288 289 303 314 316 310 260 229 268 273 269 330 211 155 145 167 186 171 183 191 194 196 195 195 193 191 196 203 213 221 223 228 229 226 222 218 222
285 307 305 302 311 312 313 316 295 262 281 261 235 228 150 180 185 195 183 188 198 196 197 195 195 193 186 183 187 193 200 212 228 236 234 229 225 225
295 311 307 317 332 325 331 329 332 358 300 293 309 41 190 273 199 230 193 189 196 200 199 196 195 190 187 190 195 197 201 209 222 237 247 245 238 234
286 303 323 326 334 332 333 329 332 337 326 296 296 267 225 235 212 249 239 205 203 200 195 194 192 193 191 195 199 202 206 212 219 229 240 244 242 237
298 320 335 348 340 329 319 328 325 324 314 281 276 270 246 246 238 267 278 271 241 193 194 196 200 199 198 198 201 204 209 217 220 222 230 237 242 242
323 343 15 34 323 314 315 344 335 326 309 286 268 265 272 285 268 285 291 280 279 245 201 195 206 205 203 200 203 206 210 216 220 221 224 228 234 241
328 8 77 79 47 360 352 356 341 328 313 303 304 332 339 338 315 286 289 285 270 266 199 216 199 210 212 211 211 208 207 211 216 218 219 221 226 233
282 293 202 127 117 104 38 0 345 313 319 315 314 316 304 303 298 299 309 305 291 297 279 267 219 210 209 203 205 205 208 211 214 215 216 219 222 225
324 316 309 35 75 23 239 229 252 251 245 259 286 291 293 291 296 301 301 292 275 280 263 263 258 247 238 222 193 198 209 215 217 216 217 219 222 224
250 224 147 57 8 3 313 286 262 255 244 229 234 262 265 279 276 272 276 278 259 270 257 261 259 257 257 222 194 198 209 212 212 215 216 217 220 222
218 162 160 151 359 345 288 278 280 268 256 251 237 243 248 249 261 296 296 287 282 276 253 253 278 285 270 227 213 212 217 216 212 216 217 217 220 217
207 166 140 187 216 234 264 275 279 285 288 272 256 249 240 236 226 226 253 275 282 283 292 285 289 301 290 274 245 216 227 226 219 218 220 219 216 213
301 206 160 191 227 247 261 267 272 284 284 271 253 239 231 226 211 211 220 239 266 277 298 308 294 298 283 288 282 237 219 214 210 221 223 222 213 208
311 329 9 247 261 261 254 267 286 297 283 282 273 253 245 235 225 221 224 230 232 244 256 253 262 273 278 286 289 272 248 233 210 208 209 209 214 217
327 332 310 271 260 255 248 261 279 276 275 280 281 276 267 263 254 239 232 235 245 255 258 245 253 270 270 272 273 273 278 272 229 212 202 203 207 208
316 315 294 270 263 265 260 243 234 253 267 276 283 281 275 269 259 243 240 238 246 260 257 250 249 266 273 277 276 278 271 255 256 240 228 227 221 213
335 306 290 289 270 259 253 244 235 241 258 275 285 291 288 277 277 275 261 254 251 260 264 261 250 257 271 274 270 273 278 290 279 259 260 259 245 228
344 296 294 304 300 292 295 288 265 266 277 281 291 296 300 297 293 294 285 277 268 262 256 255 243 258 282 289 269 265 272 279 283 271 265 261 261 256
290 291 297 304 308 315 310 306 300 276 270 281 282 295 298 299 304 302 295 295 294 287 280 271 257 251 272 282 291 302 272 270 267 265 267 267 263 265
265 280 289 293 297 303 308 318 319 319 311 302 293 297 299 304 308 306 300 296 290 289 290 289 272 261 266 270 273 282 272 260 254 252 266 283 279 257
296 297 310 308 311 322 331 332 330 326 326 317 316 318 313 307 306 304 307 308 297 291 291 292 283 273 271 260 262 261 263 253 241 233 235 244 264 254
319 324 327 329 339 354 355 349 347 343 341 334 328 324 317 307 304 303 299 298 293 290 290 292 284 274 270 266 267 269 266 264 244 239 237 216 218 229
285 299 316 324 344 359 355 353 353 352 351 340 332 329 322 314 309 308 306 305 304 303 303 295 286 281 277 268 264 262 259 259 250 236 262 265 243 241